Wetbulb
54.49 51.06 48.55 51.67 52.41 52.96 54.22 53.51 53.38 55.70 60.86 59.91 59.24 59.24 61.30 63.20 63.32 62.34 62.65 61.84 62.74 64.90 66.97 67.98 69.08 70.15 70.06 70.06 69.69 69.73 70.05 70.58 72.51 71.80 70.99 70.79 69.26 68.80 69.74 71.47 71.75 71.54 71.63 71.65
50.27 47.75 53.51 56.81 56.76 56.45 54.87 52.58 51.97 55.68 59.24 56.51 58.58 58.91 61.63 62.82 62.06 62.85 62.64 62.86 63.35 64.00 65.88 67.31 68.83 69.81 69.88 69.86 69.89 69.75 70.34 71.53 72.85 72.53 71.68 70.95 70.63 70.44 70.43 69.75 69.49 71.17 72.39 72.61
48.13 52.37 57.14 56.43 55.60 53.00 49.49 49.40 51.92 52.13 53.92 53.91 57.89 54.61 58.93 62.08 63.04 63.47 64.44 64.47 64.33 63.92 65.65 66.73 67.75 68.84 70.16 69.91 70.15 69.93 70.54 71.59 72.33 72.41 71.06 70.54 70.43 70.06 69.90 69.86 68.68 70.39 72.60 73.44
50.28 54.70 55.47 56.70 55.77 54.03 47.19 54.33 55.91 56.06 49.17 44.73 51.22 43.41 53.90 58.32 60.15 60.80 60.55 60.38 62.75 64.20 66.59 67.46 67.60 67.80 69.78 70.23 71.64 71.28 70.74 71.39 72.12 72.11 71.14 70.13 68.96 67.43 68.55 69.52 69.76 70.25 71.52 70.39
50.53 52.09 52.73 54.41 55.50 55.01 52.73 54.66 54.44 54.11 47.07 43.44 45.30 45.05 51.27 57.52 57.53 58.68 60.30 61.86 63.39 64.58 65.78 66.05 67.11 68.78 70.33 70.81 71.97 71.93 72.39 71.56 72.12 72.51 72.42 71.02 69.05 69.29 69.23 70.96 70.10 70.52 69.77 66.98
50.08 53.50 53.35 53.49 56.70 55.64 55.44 52.20 48.94 46.55 43.49 39.58 43.50 44.30 47.13 51.77 55.94 58.91 61.72 62.10 63.27 64.97 64.27 65.81 66.54 65.93 69.62 71.63 72.33 72.62 73.04 72.16 72.59 72.86 72.93 71.57 69.89 69.91 69.88 65.58 64.98 67.68 69.41 66.80
47.70 49.27 50.06 52.30 47.47 49.76 50.95 44.40 39.52 39.74 38.80 39.19 46.10 49.69 51.39 55.95 57.92 61.34 60.96 61.33 63.08 63.67 64.28 65.58 66.18 65.39 67.43 71.19 72.15 72.60 73.08 72.55 73.03 73.26 73.21 72.58 71.34 70.04 69.34 67.50 68.34 69.86 69.73 69.05
41.47 41.83 46.81 50.38 48.19 46.89 46.14 45.53 40.46 36.08 36.89 40.49 50.75 46.77 51.22 58.33 59.33 61.47 62.14 62.10 63.85 63.19 63.82 65.53 67.98 67.91 66.75 71.01 72.52 72.93 72.82 73.01 73.73 73.70 73.67 73.43 72.87 72.43 71.19 71.51 71.76 70.92 70.31 70.13
40.57 42.89 50.47 51.88 50.85 50.14 47.02 43.79 46.52 41.58 38.47 41.51 45.61 49.80 55.10 57.67 58.52 59.65 60.88 61.65 61.74 61.76 64.25 65.49 66.02 64.68 65.99 70.80 72.09 72.90 73.03 73.17 74.18 74.81 74.08 74.22 73.45 74.21 73.53 73.72 71.94 71.03 71.72 71.15
45.68 42.40 49.41 53.19 52.89 53.78 47.02 48.24 42.27 40.14 36.66 36.77 45.13 46.38 46.51 52.09 54.50 59.64 59.76 59.36 60.75 64.02 64.28 62.56 63.66 66.12 66.16 68.00 72.54 73.90 73.97 73.73 74.90 74.99 74.96 74.21 73.70 73.57 73.66 73.27 73.09 70.72 70.66 71.04
45.34 44.37 47.09 53.57 49.77 49.08 49.51 47.29 44.91 42.20 41.49 40.87 39.40 44.11 53.00 55.07 56.53 58.62 59.35 60.75 61.86 63.34 65.47 62.54 65.38 65.86 65.76 66.84 70.32 74.16 74.04 74.16 74.37 74.69 74.48 72.93 72.60 73.27 72.53 72.40 72.09 71.42 69.63 71.71
48.77 47.41 43.80 49.10 53.48 54.68 52.40 48.58 44.50 41.38 41.57 45.65 43.06 45.97 56.57 56.28 57.84 60.02 60.04 61.99 64.78 64.51 65.38 67.20 67.38 65.68 65.23 69.54 71.14 74.08 72.89 73.43 73.82 73.58 73.39 72.87 73.50 71.67 71.35 70.19 70.67 70.79 70.39 68.47
51.83 46.20 42.21 46.07 48.57 51.16 50.68 49.67 48.06 46.02 41.98 43.34 43.30 46.12 55.66 56.64 56.43 56.45 57.78 60.61 60.14 62.49 63.43 63.09 64.70 67.36 67.38 66.96 69.65 69.94 69.88 68.42 69.82 72.60 72.14 70.42 68.36 66.51 66.65 66.81 67.10 67.94 67.76 68.05
56.73 46.69 45.51 42.92 45.21 47.82 48.58 50.78 50.46 47.48 40.91 41.25 44.36 47.17 51.27 54.64 56.33 56.37 57.68 60.09 59.96 59.41 61.23 63.01 61.96 66.64 66.24 66.00 66.62 66.71 67.05 67.16 66.57 66.64 66.39 66.18 66.55 66.65 66.46 66.50 66.67 66.60 66.68 66.10
51.75 46.25 45.86 47.28 50.73 50.95 49.29 51.01 52.29 49.24 47.61 43.79 46.18 49.16 51.46 53.83 55.11 58.69 58.16 58.97 60.35 59.99 64.82 62.63 63.30 63.95 63.81 63.83 64.36 64.73 64.91 64.77 64.25 63.75 64.82 64.78 65.24 65.64 65.61 65.68 66.23 66.58 66.32 66.33
49.99 46.57 47.41 46.31 51.43 51.12 49.58 51.70 51.85 53.05 50.52 50.80 50.79 50.75 54.10 55.26 57.51 58.17 59.81 59.82 59.26 62.76 63.68 63.78 63.63 63.29 62.50 62.80 63.30 63.82 63.25 62.89 63.07 62.78 63.81 64.06 64.03 64.58 64.66 65.01 64.75 64.43 64.20 64.85
48.57 48.51 45.10 42.27 50.40 49.47 45.57 48.99 51.20 51.87 51.49 51.94 49.59 52.97 54.96 55.16 57.87 58.99 59.56 60.42 63.57 64.12 64.47 64.05 64.11 63.76 62.97 63.09 62.56 61.18 62.59 62.33 62.14 62.64 62.90 63.35 64.26 63.97 63.99 64.52 64.33 64.38 64.47 64.16
47.30 46.34 44.56 43.23 45.04 41.22 48.90 52.99 54.81 52.11 54.47 55.89 56.04 55.44 56.57 56.80 59.80 59.33 58.35 59.27 62.80 62.86 64.20 64.75 63.73 63.88 62.71 62.42 61.70 62.36 62.03 61.47 61.43 61.67 62.36 63.00 63.26 63.33 63.57 63.59 63.19 62.59 62.89 62.68
50.20 45.99 41.86 43.01 41.37 44.07 47.65 51.24 52.17 49.89 49.22 57.08 59.23 59.69 59.77 59.44 61.34 60.31 58.88 59.75 62.49 62.32 62.82 63.65 61.33 60.75 60.85 60.98 61.29 61.02 60.37 60.37 60.62 60.44 60.55 60.92 61.50 61.42 61.66 61.38 61.16 61.57 61.56 61.11
48.27 46.26 44.50 40.08 38.37 36.86 46.06 54.24 53.87 52.98 45.76 55.94 60.71 59.82 60.22 60.69 53.98 55.56 62.51 63.13 63.49 62.76 60.11 59.56 59.10 58.03 57.68 58.65 59.61 57.79 57.44 56.94 56.71 58.28 59.73 60.50 60.54 60.27 60.34 60.39 59.95 60.28 60.00 60.45
46.71 44.62 43.76 42.53 41.08 45.16 52.92 56.26 55.03 44.62 46.39 56.69 58.74 58.70 56.90 54.30 55.22 55.99 58.23 57.73 58.73 59.27 59.39 58.42 56.65 55.73 55.41 56.15 57.02 55.78 54.38 53.81 55.15 56.15 57.48 58.62 58.96 58.84 59.14 58.44 58.12 57.86 57.98 58.76
46.29 43.82 41.66 42.13 40.63 41.09 55.84 55.05 50.57 52.20 54.06 57.18 56.76 56.84 55.45 55.38 55.83 56.30 57.14 56.85 56.66 55.71 56.51 57.00 54.68 53.97 54.38 55.15 54.32 52.28 52.18 53.66 53.96 54.45 54.75 54.34 55.29 56.70 57.21 55.82 55.60 55.82 55.52 55.72
45.61 47.24 46.52 46.26 47.25 53.37 53.54 55.09 56.18 56.95 55.05 54.60 55.39 55.72 55.86 55.13 54.80 55.26 54.26 53.87 53.72 53.90 53.62 53.83 52.25 51.21 51.47 51.65 51.48 49.81 50.67 51.81 51.30 50.51 50.36 50.88 51.55 52.26 53.52 53.13 52.06 51.69 52.33 52.93
49.50 50.65 49.71 49.12 51.18 52.41 55.85 55.51 56.37 56.95 55.89 56.11 56.31 55.94 55.77 53.60 53.35 52.34 52.47 51.38 51.54 51.96 51.69 51.66 50.56 49.53 48.73 49.73 50.77 50.25 50.92 50.63 49.67 48.62 48.85 49.43 49.23 49.49 49.98 50.54 51.04 51.08 51.22 51.01
50.31 50.06 48.23 49.07 51.63 54.39 54.86 56.07 56.40 56.50 56.96 56.34 56.20 55.45 53.59 52.53 51.37 51.04 49.80 49.71 50.23 50.27 50.07 49.69 48.71 48.10 48.06 48.95 48.82 49.93 51.73 50.23 48.54 48.32 48.10 47.30 47.55 47.22 47.74 48.67 49.86 50.08 50.94 50.76
50.59 49.28 47.60 47.24 52.44 51.95 53.02 55.70 57.30 56.34 55.81 55.11 53.74 52.53 52.71 52.46 50.58 50.04 49.12 49.24 48.77 48.37 48.55 48.15 47.88 47.73 47.88 48.18 48.59 50.87 49.72 48.67 46.79 45.88 46.22 47.05 47.45 47.62 47.50 47.55 48.18 49.00 48.33 47.93
MSLP
1003.69 1004.36 1004.61 1004.24 1004.13 1003.82 1003.23 1003.44 1003.75 1003.53 1004.28 1005.19 1005.79 1006.47 1006.77 1006.90 1007.33 1007.82 1008.37 1008.79 1009.14 1009.52 1009.78 1010.19 1010.61 1011.30 1012.13 1013.00 1013.43 1013.87 1014.54 1015.11 1015.53 1016.04 1016.21 1016.54 1016.86 1016.70 1016.55 1016.41 1016.24 1016.30 1016.42 1016.57
1004.73 1004.57 1003.89 1003.49 1003.29 1003.14 1003.22 1003.48 1003.38 1003.17 1003.64 1004.68 1005.64 1006.33 1006.54 1006.42 1006.63 1006.81 1007.69 1008.71 1008.91 1009.23 1009.72 1010.25 1010.64 1011.22 1011.72 1012.43 1013.23 1013.79 1014.22 1014.79 1014.89 1015.27 1015.76 1016.04 1016.26 1016.40 1016.26 1016.07 1016.15 1016.28 1016.30 1016.23
1004.75 1003.79 1003.22 1003.29 1002.79 1003.14 1003.19 1003.08 1002.67 1002.83 1003.37 1004.64 1005.71 1007.05 1007.04 1006.69 1006.80 1007.15 1007.56 1008.07 1008.66 1008.83 1009.21 1010.11 1010.76 1010.98 1011.47 1012.20 1012.66 1013.20 1013.78 1014.34 1014.51 1014.84 1015.43 1015.98 1016.15 1016.26 1016.26 1016.01 1016.07 1015.97 1015.97 1016.22
1004.28 1003.03 1003.22 1002.73 1002.62 1002.65 1002.65 1002.24 1002.18 1002.93 1004.09 1004.97 1005.48 1007.30 1007.05 1006.94 1007.11 1007.23 1007.69 1008.13 1008.82 1009.05 1009.00 1009.46 1010.27 1010.91 1011.12 1011.45 1012.13 1012.64 1013.29 1013.90 1014.13 1014.70 1015.20 1015.38 1015.62 1015.91 1015.73 1015.68 1015.60 1015.82 1015.81 1015.47
1003.61 1003.10 1002.91 1002.58 1002.23 1002.06 1002.45 1002.14 1002.38 1002.98 1004.39 1005.43 1005.89 1006.77 1006.36 1007.08 1007.88 1007.58 1008.20 1008.75 1008.77 1009.12 1009.09 1009.24 1009.65 1010.09 1010.64 1011.25 1011.68 1012.10 1012.73 1013.56 1013.90 1014.34 1014.71 1015.08 1015.14 1015.06 1015.24 1015.34 1015.45 1015.75 1015.48 1014.46
1003.59 1002.74 1002.50 1001.84 1001.39 1001.64 1001.67 1002.33 1003.32 1004.47 1005.61 1006.73 1006.26 1006.99 1006.99 1007.19 1006.91 1007.96 1008.84 1009.99 1010.05 1010.34 1010.15 1010.07 1010.32 1010.41 1010.73 1011.32 1011.40 1011.92 1012.18 1012.56 1013.47 1013.81 1014.06 1014.37 1014.78 1014.92 1015.21 1015.42 1015.59 1015.74 1015.35 1014.47
1003.43 1002.61 1001.55 1001.28 1001.37 1001.28 1002.10 1003.98 1005.20 1006.63 1007.34 1007.56 1006.78 1007.13 1006.85 1006.91 1006.66 1006.34 1007.67 1008.53 1009.33 1009.60 1010.46 1010.25 1010.30 1010.27 1010.55 1010.55 1010.77 1011.52 1011.90 1012.28 1012.86 1013.48 1013.94 1014.19 1014.28 1014.68 1014.93 1015.05 1015.12 1015.11 1015.22 1014.95
1004.55 1002.99 1001.50 1000.85 1001.01 1001.61 1002.54 1004.05 1005.63 1007.25 1008.47 1007.97 1007.43 1007.41 1006.81 1007.45 1006.51 1007.18 1007.71 1008.26 1009.16 1008.99 1009.91 1008.13 1009.12 1010.08 1010.11 1010.30 1010.54 1010.49 1011.12 1011.59 1012.39 1012.79 1012.98 1013.76 1014.32 1014.47 1014.37 1014.39 1014.63 1014.54 1014.64 1014.30
1004.40 1003.11 1001.67 1000.83 1000.72 1001.45 1002.55 1004.01 1004.65 1006.54 1008.04 1008.77 1008.89 1008.08 1006.92 1007.53 1008.50 1008.45 1009.63 1010.50 1011.14 1010.21 1009.33 1008.66 1009.04 1009.89 1009.65 1009.51 1009.90 1009.48 1009.88 1010.58 1011.72 1012.30 1012.50 1012.70 1013.15 1013.39 1013.94 1013.68 1014.04 1014.41 1014.15 1014.00
1003.43 1003.69 1002.13 1000.87 1000.96 1002.00 1002.51 1003.55 1005.25 1007.21 1008.52 1009.21 1009.17 1008.67 1008.40 1007.97 1009.78 1011.08 1011.76 1012.45 1011.63 1011.00 1010.61 1010.69 1010.10 1009.20 1009.80 1009.76 1008.50 1008.29 1008.52 1009.22 1010.35 1011.58 1012.08 1012.26 1012.60 1012.87 1013.30 1013.54 1013.69 1014.14 1014.28 1014.22
1003.04 1003.69 1003.07 1002.11 1002.90 1003.11 1003.52 1004.46 1005.70 1007.10 1008.08 1008.91 1009.38 1009.18 1008.09 1008.96 1009.69 1013.10 1013.08 1012.51 1011.63 1010.72 1010.74 1010.27 1010.51 1010.14 1009.21 1008.24 1007.55 1006.90 1007.91 1008.68 1010.13 1010.18 1011.10 1011.82 1012.07 1012.41 1012.82 1013.30 1013.49 1013.83 1014.19 1014.46
1002.32 1004.01 1004.01 1003.99 1003.49 1003.49 1003.90 1005.36 1006.39 1007.87 1008.35 1008.51 1009.10 1008.91 1009.16 1009.51 1010.02 1011.65 1012.61 1012.17 1011.58 1011.44 1011.11 1011.24 1010.82 1009.33 1009.52 1009.64 1009.15 1008.53 1008.76 1008.78 1009.19 1010.21 1010.87 1011.61 1011.94 1012.47 1012.81 1013.34 1013.54 1013.89 1014.22 1014.34
1001.88 1004.13 1005.00 1004.80 1004.60 1004.34 1004.66 1005.53 1006.24 1006.98 1008.01 1008.46 1009.16 1008.88 1009.60 1009.49 1010.82 1011.22 1011.13 1011.91 1011.90 1011.06 1011.20 1011.84 1012.27 1012.22 1011.51 1010.15 1008.60 1008.05 1008.25 1008.49 1010.03 1010.46 1011.24 1011.98 1012.42 1012.91 1013.21 1013.32 1013.45 1013.84 1014.10 1014.31
1001.17 1004.42 1005.27 1005.87 1005.58 1005.24 1005.23 1005.57 1005.75 1006.49 1007.89 1008.37 1008.60 1008.82 1009.62 1009.88 1011.15 1011.52 1010.67 1010.69 1011.60 1010.90 1010.97 1013.70 1013.02 1011.86 1010.02 1010.80 1008.75 1010.38 1011.62 1012.01 1012.34 1011.22 1011.81 1012.42 1013.01 1013.21 1013.38 1013.54 1013.54 1013.84 1014.10 1014.21
1002.43 1004.66 1005.15 1005.94 1005.73 1005.45 1005.51 1005.41 1005.34 1005.37 1006.40 1007.36 1007.27 1008.48 1008.92 1009.12 1010.33 1011.09 1010.78 1010.35 1010.21 1011.07 1012.53 1013.51 1013.88 1013.14 1011.95 1011.38 1010.40 1009.94 1010.90 1010.72 1010.34 1011.14 1012.17 1012.99 1013.22 1013.13 1013.27 1013.43 1013.39 1013.51 1013.77 1013.91
1003.74 1005.40 1005.63 1006.13 1005.53 1005.24 1004.86 1004.56 1004.71 1005.14 1006.15 1006.51 1006.95 1007.67 1007.78 1009.28 1010.18 1010.88 1011.17 1010.85 1011.14 1012.22 1012.31 1013.57 1013.23 1011.06 1010.01 1009.81 1010.02 1010.01 1010.20 1010.80 1011.49 1012.33 1012.87 1012.86 1012.92 1012.89 1012.82 1012.95 1013.06 1013.33 1013.68 1013.83
1004.39 1005.60 1006.78 1007.22 1006.23 1005.42 1005.07 1004.24 1004.14 1004.36 1004.71 1005.76 1006.76 1007.00 1007.68 1009.07 1010.09 1010.84 1011.44 1011.32 1010.73 1010.77 1011.48 1011.50 1010.86 1010.64 1010.09 1010.13 1010.17 1010.38 1011.03 1011.76 1012.21 1012.38 1012.55 1012.91 1012.81 1012.70 1012.57 1012.60 1012.81 1013.11 1013.35 1013.51
1004.73 1006.14 1007.04 1007.89 1007.20 1006.67 1005.10 1003.61 1003.70 1004.40 1004.52 1005.13 1006.11 1006.74 1007.37 1008.60 1009.81 1010.90 1011.53 1011.61 1011.51 1010.83 1010.33 1010.73 1010.88 1010.90 1010.87 1010.80 1011.05 1011.50 1012.11 1012.51 1012.93 1012.95 1013.74 1013.57 1013.10 1012.89 1012.83 1012.96 1013.06 1013.14 1013.16 1013.26
1004.75 1006.03 1007.55 1008.04 1007.89 1006.86 1005.31 1004.17 1003.76 1004.41 1005.91 1006.15 1006.34 1007.03 1007.94 1009.21 1010.11 1011.21 1011.38 1011.34 1011.60 1011.86 1012.06 1012.21 1012.12 1012.32 1012.68 1012.90 1013.09 1013.32 1013.79 1014.19 1014.50 1014.77 1014.50 1013.76 1013.61 1013.36 1013.47 1013.45 1013.45 1013.35 1013.35 1013.34
1004.97 1005.44 1006.51 1008.10 1008.06 1007.10 1005.92 1004.80 1003.86 1004.38 1006.70 1007.10 1006.61 1007.60 1008.15 1009.24 1010.84 1011.65 1011.38 1011.75 1012.21 1012.65 1013.26 1013.65 1013.71 1013.92 1014.19 1014.76 1014.88 1015.02 1015.37 1015.77 1016.01 1015.56 1014.83 1014.32 1013.94 1014.00 1013.95 1013.86 1013.77 1013.56 1013.46 1013.28
1006.04 1006.07 1007.00 1007.66 1007.69 1006.95 1005.76 1005.07 1004.64 1005.89 1007.94 1007.60 1007.63 1008.21 1008.90 1009.95 1010.79 1011.61 1012.07 1012.73 1013.28 1013.81 1014.10 1014.34 1014.79 1015.33 1015.68 1015.72 1015.69 1015.94 1016.36 1016.52 1015.89 1015.32 1014.75 1014.69 1014.60 1014.50 1014.17 1014.00 1013.86 1013.70 1013.49 1013.13
1006.18 1006.63 1007.46 1007.89 1007.68 1006.87 1005.52 1005.36 1006.04 1007.63 1007.99 1008.03 1008.71 1009.38 1009.80 1010.66 1011.73 1012.65 1013.41 1014.00 1014.46 1014.80 1015.15 1015.41 1015.79 1016.13 1016.35 1016.35 1016.42 1016.60 1016.33 1016.35 1016.29 1015.68 1015.51 1015.47 1015.30 1015.03 1014.59 1014.34 1014.03 1013.68 1013.33 1012.86
1006.58 1006.23 1006.59 1007.23 1006.88 1006.30 1005.91 1005.75 1006.72 1007.29 1007.99 1009.00 1009.11 1010.26 1010.65 1011.87 1012.94 1013.66 1014.32 1014.80 1015.22 1015.59 1015.90 1016.16 1016.43 1016.85 1016.96 1016.94 1016.87 1017.14 1017.26 1016.80 1016.40 1016.38 1016.37 1016.25 1015.81 1015.31 1014.82 1014.50 1014.14 1013.72 1013.20 1012.59
1005.45 1005.24 1006.36 1007.06 1007.19 1007.08 1006.87 1007.17 1007.46 1007.91 1008.63 1009.60 1010.08 1010.70 1011.43 1012.60 1013.63 1014.61 1015.25 1015.76 1016.07 1016.48 1016.84 1017.16 1017.34 1017.46 1017.52 1017.32 1017.21 1017.19 1017.07 1016.92 1016.99 1016.98 1016.78 1016.31 1015.82 1015.30 1014.61 1014.18 1013.85 1013.39 1012.88 1012.35
1005.29 1005.31 1006.48 1007.24 1007.67 1007.84 1008.00 1007.62 1007.83 1008.62 1009.20 1009.96 1010.71 1011.32 1012.16 1012.96 1014.34 1015.10 1015.96 1016.49 1016.76 1016.93 1017.12 1017.20 1017.38 1017.50 1017.56 1017.36 1017.25 1017.24 1017.07 1016.97 1017.06 1016.97 1016.60 1016.09 1015.58 1015.00 1014.42 1013.83 1013.26 1012.75 1012.22 1011.92
1005.34 1005.38 1005.96 1006.70 1006.56 1006.64 1007.88 1008.13 1008.07 1008.66 1009.66 1010.38 1011.01 1012.12 1012.84 1013.32 1014.58 1015.31 1016.24 1016.73 1017.07 1017.39 1017.63 1017.72 1017.72 1017.69 1017.68 1017.51 1017.29 1016.96 1016.91 1016.90 1016.80 1016.63 1016.33 1015.92 1015.43 1014.84 1014.09 1013.37 1012.47 1011.96 1011.32 1010.75
Wind_Speed
7 4 5 10 6 6 10 4 4 6 10 6 14 11 16 14 14 13 14 8 9 14 12 14 14 16 14 11 10 12 8 8 8 5 4 3 3 3 3 4 6 6 5 5
6 5 10 8 6 7 4 10 6 2 12 5 10 14 16 17 16 17 16 9 10 7 11 10 14 14 15 15 11 9 8 10 9 7 4 3 4 3 3 2 4 3 4 5
5 12 5 6 9 2 5 5 8 11 5 2 11 1 9 10 6 9 14 13 8 9 14 12 13 14 14 13 13 12 11 11 10 10 3 3 3 0 2 3 2 4 3 3
6 10 6 6 11 4 6 5 2 3 6 5 6 5 7 7 10 14 13 7 8 8 9 11 12 11 14 14 12 12 12 11 11 10 6 7 5 5 4 3 3 4 7 4
11 4 5 9 13 2 12 7 5 1 4 3 1 6 7 12 11 17 7 5 9 7 8 10 10 13 13 13 13 12 12 12 12 10 9 7 5 4 2 2 6 5 5 7
9 5 7 10 15 8 4 1 8 6 4 4 5 6 6 6 12 13 2 4 5 2 7 6 6 8 7 11 13 13 13 13 13 12 9 9 8 5 3 2 4 5 5 4
8 8 6 5 3 6 5 8 4 6 6 8 2 4 6 2 4 19 17 11 7 8 5 4 4 5 6 14 16 13 13 12 11 10 8 7 8 7 7 6 4 5 6 4
1 9 2 2 8 9 4 10 8 6 4 5 3 5 4 6 6 5 10 13 8 10 7 8 4 5 4 12 16 17 15 13 11 11 10 7 7 4 5 6 4 4 5 5
4 8 8 6 4 11 8 1 7 5 2 3 4 6 7 7 5 6 8 10 8 1 8 5 8 6 6 12 17 20 17 15 14 13 10 9 8 8 6 7 5 4 4 4
9 4 5 5 7 5 4 3 3 5 1 2 3 4 5 6 11 11 14 10 4 6 4 6 9 8 6 9 15 16 17 19 17 12 9 8 6 6 5 4 6 7 4 4
7 4 7 8 3 3 7 5 5 6 6 6 2 7 7 3 3 23 12 10 8 10 10 9 9 11 16 17 14 17 16 15 12 12 10 7 7 6 5 5 4 5 4 6
5 6 2 4 4 2 7 4 6 6 7 2 5 6 7 5 8 10 11 8 12 6 13 8 9 15 14 20 13 6 8 11 10 7 6 6 6 5 6 4 3 1 1 0
6 3 4 11 8 2 5 3 4 4 2 4 5 6 5 4 12 6 8 11 11 11 13 9 14 13 5 7 6 14 19 18 13 6 7 9 8 7 7 6 6 6 4 3
12 5 9 8 7 0 2 2 3 8 3 1 5 5 1 4 9 6 2 6 10 11 16 4 17 17 2 10 8 12 13 7 5 9 8 8 6 6 6 5 5 3 1 1
7 6 4 5 4 3 2 2 5 5 6 6 4 6 7 10 9 9 6 3 10 7 6 14 18 13 8 8 8 8 6 6 7 9 8 6 6 6 6 5 4 3 1 3
5 1 3 4 3 6 1 4 4 1 7 3 5 4 5 7 8 5 3 1 4 3 6 11 11 2 3 6 7 8 7 7 7 7 6 6 5 4 4 4 4 4 4 4
4 6 5 3 3 4 6 4 5 2 2 10 6 5 7 3 8 12 7 4 6 6 7 4 2 3 2 3 3 5 4 4 5 5 3 4 4 5 5 3 2 3 3 2
4 4 2 3 4 3 10 7 6 3 5 9 6 9 16 12 5 8 5 5 2 2 4 6 5 1 3 3 4 4 5 7 8 9 7 6 5 4 3 2 1 2 3 4
6 5 3 6 4 5 4 7 5 7 3 2 13 8 6 10 7 3 6 5 5 5 4 4 8 11 13 12 11 12 12 10 11 10 8 8 7 7 6 6 5 4 3 4
6 5 7 3 4 2 6 9 2 7 4 3 16 13 18 16 6 3 7 5 4 5 7 8 11 12 13 10 9 11 10 10 10 9 8 7 7 7 7 6 6 3 3 5
5 4 6 3 2 4 5 9 1 8 7 3 6 10 7 6 6 7 13 13 12 10 10 11 12 11 8 6 8 10 7 7 5 7 8 8 8 7 6 6 4 4 5 6
2 4 2 3 4 4 3 4 8 7 4 11 13 13 19 17 15 14 13 11 11 11 10 9 9 8 7 7 7 6 8 6 6 7 8 9 9 8 8 7 6 7 7 7
3 7 6 6 7 5 5 8 8 12 15 8 15 12 16 15 13 12 10 10 9 8 8 6 7 7 7 7 6 7 4 5 6 7 6 6 7 7 7 6 8 8 8 8
4 3 5 6 4 5 12 7 10 14 17 12 13 14 15 14 11 11 9 7 7 6 7 5 6 6 6 5 6 4 3 4 5 5 6 6 6 7 8 5 5 6 7 7
6 4 6 1 6 8 5 11 16 15 15 15 13 13 13 14 10 10 7 7 6 6 5 5 6 5 4 3 4 2 3 4 4 5 6 6 5 6 7 8 8 10 11 8
3 7 6 7 10 7 7 8 14 16 14 13 17 12 10 14 11 9 8 6 6 6 4 5 4 4 2 2 1 1 2 2 3 4 4 5 7 8 8 9 10 11 15 17
Wind_Direction
322 39 262 255 190 237 220 200 219 191 176 130 176 170 178 187 179 172 186 177 169 184 185 178 174 171 167 172 168 174 158 158 154 171 183 201 219 226 243 211 225 221 225 216
356 276 246 247 262 285 296 246 244 314 162 139 174 179 186 192 183 178 179 162 151 134 157 174 176 171 169 175 178 174 170 167 177 182 188 167 167 196 214 200 227 236 245 217
175 251 304 284 315 335 257 212 211 187 156 18 113 354 192 213 167 175 180 174 160 163 169 169 174 178 172 178 180 180 182 182 189 192 155 84 89 72 208 235 238 208 270 357
232 264 236 246 266 246 299 276 337 116 108 201 163 227 238 177 185 190 179 194 155 172 163 162 184 181 184 187 180 179 188 188 198 195 197 183 180 183 212 188 169 96 109 134
248 265 243 218 232 197 245 240 237 91 119 92 303 84 248 129 194 204 184 173 192 181 160 156 163 191 192 177 180 183 184 195 202 196 202 206 197 211 140 151 134 118 177 227
239 242 186 223 246 200 255 231 42 49 75 5 239 150 288 179 183 198 126 81 326 11 36 40 53 35 212 195 176 179 178 187 200 194 195 189 213 213 151 174 174 159 204 235
319 280 266 183 198 340 94 54 358 359 4 227 238 93 230 297 281 181 177 163 159 119 104 70 33 139 303 191 183 183 182 188 198 200 201 197 201 197 196 189 184 160 180 236
208 316 251 258 171 199 211 153 157 200 203 256 7 204 249 169 253 129 158 155 182 149 241 160 65 321 208 214 193 183 184 187 193 198 199 193 202 204 200 195 186 193 203 219
184 270 284 227 173 131 266 190 191 118 121 76 294 293 306 157 263 82 73 19 341 240 183 235 253 258 248 212 203 186 182 187 189 192 191 188 195 195 203 206 176 191 194 213
231 278 246 303 48 8 147 177 32 9 142 351 278 277 235 312 118 70 107 52 148 193 127 340 271 248 326 281 207 198 184 183 184 187 188 194 192 194 197 183 153 172 187 209
159 127 289 51 44 163 5 10 39 117 134 160 193 265 215 86 58 118 131 163 163 193 195 179 269 287 267 248 238 191 183 174 181 178 181 175 169 177 169 169 174 180 184 185
187 138 118 177 191 328 113 155 109 105 296 91 122 279 55 122 90 83 128 162 89 57 182 183 259 262 289 271 229 181 199 164 153 162 145 136 110 106 115 89 93 143 95 86
177 37 43 353 4 14 72 66 135 122 90 18 136 251 55 50 76 95 129 160 111 91 82 12 326 330 306 29 12 97 61 353 11 83 108 94 108 100 101 105 85 73 65 19
84 121 143 177 208 273 23 42 114 111 84 264 219 295 357 246 126 147 158 236 125 107 109 119 322 270 349 117 138 102 117 191 156 86 82 89 102 111 115 115 116 121 120 347
96 140 125 113 125 123 230 296 285 116 193 167 225 200 203 209 158 167 176 300 80 80 135 186 226 222 173 144 104 97 107 87 80 81 96 116 139 143 147 141 141 148 203 279
11 180 89 29 32 25 4 283 274 253 104 60 157 234 194 91 92 150 181 94 119 118 151 203 217 208 84 107 127 125 123 127 117 121 140 156 160 166 175 185 191 191 229 254
88 132 94 242 16 8 9 242 212 187 198 153 170 203 135 116 159 168 139 129 144 187 181 163 172 165 51 34 65 96 112 101 113 143 174 205 204 215 233 244 245 255 248 218
90 93 110 132 33 92 240 284 127 114 76 113 103 146 169 168 114 113 135 158 132 324 22 333 294 47 76 91 58 85 58 36 33 24 1 347 338 312 311 280 244 254 241 258
98 96 76 123 171 273 349 332 143 132 22 127 114 116 166 133 88 50 181 197 164 193 225 292 43 56 51 39 46 61 46 39 34 22 12 10 12 7 358 345 322 303 290 292
41 127 112 111 138 135 243 299 27 118 21 29 129 138 129 136 110 221 177 172 158 98 78 87 70 64 55 40 56 61 50 41 26 9 1 359 8 5 351 343 329 301 284 270
331 12 116 90 137 274 270 285 271 85 223 18 140 130 126 105 99 107 91 80 84 87 82 78 68 66 62 50 64 64 54 37 3 359 0 358 350 335 323 326 310 302 298 287
325 112 198 81 97 261 242 349 108 185 51 103 82 98 93 91 92 94 93 88 83 81 74 72 78 69 50 47 63 55 39 9 4 6 6 352 342 335 332 326 317 319 309 298
193 186 170 156 207 234 324 121 117 133 116 100 104 101 103 100 94 97 90 85 81 78 74 69 78 70 42 38 52 58 18 21 10 5 341 324 319 319 317 317 318 312 309 304
297 117 98 70 309 116 113 92 109 114 111 112 105 108 104 107 103 98 97 90 84 80 87 98 95 84 54 41 54 69 32 20 2 332 314 297 308 318 318 305 294 287 290 291
202 103 138 67 75 77 39 120 125 113 111 105 102 111 115 109 103 114 109 102 100 90 73 69 76 68 47 56 59 30 0 349 348 346 318 315 304 294 303 302 303 304 300 291
184 174 146 207 198 141 174 150 126 117 120 119 115 100 99 115 119 114 103 110 113 104 106 84 79 79 63 62 50 16 8 14 338 324 307 298 313 309 301 300 302 279 258 259